www.pogodaiklimat.ru

Погода и климат >> Архив погоды >> Испания >> Толедо


ПОГОДА в Толедо

  • Прогноз погоды в Толедо
  • Монитор погоды в Толедо

АРХИВ ПОГОДЫ в Толедо

Время (UTC), дата Ветер
(напр.,м/с)
 
Видим.   Явления Облачность Т
(С)
Тd
(С)
f
(%)
Тe
(С)
Тes
(С)
Комфортность P
(гПа)
Po
(гПа)
Тmin
(С)
Tmax
(С)
R
(мм)
R24
(мм)
S
(см)
22 13.06 З 1 20 км н/о +21.4 -2.5 20 +21 +21 комфорт 1008.8 950.6
23 13.06 ЮВ 2 20 км н/о +20.3 -2.1 22 +21 +21 комфорт 1009.5 951.1
00 14.06 Ю 1 20 км н/о +19.4 -1.7 24 +20 +20 1009.4 950.8
01 14.06 З 1 20 км н/о +18.3 -2.6 24 +19 +19 1009.5 950.7
02 14.06 З 2 20 км н/о +16.8 -2.8 26 +17 +17 1009.9 950.8
03 14.06 З 3 20 км н/о +16.3 0.0 33 +16 +16 1010.2 951.0
04 14.06 З 4 20 км н/о +15.8 +0.7 36 +15 +15 1010.6 951.3
05 14.06 З 4 20 км н/о +14.5 +2.7 45 +14 +14 1011.4 951.8
06 14.06 З 3 20 км н/о +14.9 +4.3 49 +14 +14 1011.7 952.2 +14.3
07 14.06 З 4 20 км н/о +16.9 +4.2 43 +17 +17 1012.1 952.9
08 14.06 З 3 20 км н/о +19.0 +4.0 37 +19 +19 1011.8 953.1
09 14.06 СЗ 4 20 км н/о +21.1 +3.3 31 +21 +21 комфорт 1011.2 952.9
10 14.06 З 5 20 км н/о +23.0 +4.0 29 +23 +23 комфорт 1010.6 952.7
11 14.06 З 6 20 км н/о +23.6 +2.4 25 +23 +23 комфорт 1010.7 952.9
12 14.06 З 7 20 км н/о +24.6 +1.5 22 +23 +23 комфорт 1011.0 953.3
13 14.06 З 7 20 км н/о +24.9 +1.1 21 +24 +24 комфорт 1010.8 953.2
14 14.06 З 6 20 км н/о +25.3 +0.7 20 +24 +24 комфорт 1010.9 953.4
15 14.06 З 7 20 км н/о +25.1 +0.5 20 +24 +24 комфорт 1010.8 953.2
16 14.06 З 8 20 км н/о +24.7 -0.5 19 +23 +23 комфорт 1011.1 953.4
17 14.06 З 6 20 км н/о +24.4 +0.6 21 +23 +23 комфорт 1011.2 953.5
18 14.06 ЮЗ 5 20 км н/о +23.4 -0.9 20 +22 +22 комфорт 1012.1 954.1 +25.6
19 14.06 ЮЗ 5 20 км н/о +21.2 +2.4 29 +21 +21 комфорт 1013.0 954.6
20 14.06 З 6 20 км н/о +19.9 +3.6 34 +20 +20 1014.2 955.5
21 14.06 З 6 20 км н/о +18.6 +2.8 35 +18 +18 1015.7 956.6
22 14.06 З 5 20 км н/о +17.2 +2.4 37 +17 +17 1016.6 957.2
23 14.06 З 5 20 км н/о +16.2 +2.9 41 +15 +15 1017.4 957.8
00 15.06 З 5 20 км н/о +15.3 +3.7 46 +14 +14 1017.7 957.9
01 15.06 З 3 20 км н/о +14.5 +4.5 51 +14 +14 1018.1 958.1
02 15.06 СЗ 2 20 км н/о +13.3 +4.7 56 +13 +13 1018.3 958.1
03 15.06 СЗ 3 20 км н/о +12.6 +5.0 60 +12 +12 1018.7 958.3
04 15.06 Ю 2 20 км н/о +11.7 +5.3 65 +11 +11 1019.1 958.5
05 15.06 З 1 20 км н/о +11.0 +5.1 67 +11 +11 1019.8 959.0
06 15.06 СЗ 1 20 км н/о +12.6 +5.5 62 +13 +13 1019.8 959.3 +10.9
07 15.06 З 4 20 км н/о +14.8 +6.1 56 +14 +14 1019.6 959.6
08 15.06 СЗ 2 20 км н/о +16.7 +5.6 48 +17 +17 1019.6 960.0
09 15.06 ЮЗ 3 20 км н/о +18.9 +5.3 41 +20 +20 1019.2 960.0
10 15.06 З 3 20 км н/о +20.0 +4.5 36 +21 +21 комфорт 1019.0 960.0
11 15.06 С 2 20 км н/о +21.7 +3.4 30 +22 +22 комфорт 1018.4 959.8
12 15.06 СЗ 5 20 км н/о +23.2 +2.6 26 +23 +23 комфорт 1017.5 959.2
13 15.06 СЗ 2 20 км н/о +24.5 +0.7 21 +23 +23 комфорт 1016.8 958.8
14 15.06 З 4 20 км н/о +25.3 0.0 19 +24 +24 комфорт 1016.2 958.4
15 15.06 ЮЗ 3 20 км н/о +26.5 -0.6 17 +24 +24 комфорт 1015.6 958.0
16 15.06 СЗ 4 20 км н/о +26.8 +0.5 18 +25 +25 комфорт 1015.1 957.6
17 15.06 СЗ 4 20 км н/о +26.9 +0.6 18 +25 +25 комфорт 1014.7 957.3
18 15.06 СЗ 4 20 км дымка н/о +26.7 +0.4 18 +25 +25 комфорт 1014.8 957.3 +27.4
19 15.06 СЗ 3 20 км н/о +26.1 +0.7 19 +24 +24 комфорт 1015.0 957.4
20 15.06 СЗ 2 20 км н/о +23.1 -1.1 20 +22 +22 комфорт 1015.9 957.7
21 15.06 С 1 20 км н/о +21.4 -1.2 22 +21 +21 комфорт 1017.0 958.4
22 15.06 ЮВ 1 20 км н/о +20.2 -1.0 24 +22 +22 комфорт 1017.6 958.7
23 15.06 ЮЗ 1 20 км н/о +18.7 -0.2 28 +20 +20 1018.2 959.0
00 16.06 З 2 20 км н/о +18.1 +0.2 30 +19 +19 1017.8 958.5
01 16.06 В 1 20 км н/о +16.7 -0.1 32 +18 +18 1017.9 958.3
02 16.06 СЗ 1 20 км н/о +16.2 +0.3 34 +18 +18 1017.7 958.0
03 16.06 В 2 20 км н/о +14.5 +0.3 38 +15 +15 1017.8 957.8
04 16.06 ЮВ 1 20 км н/о +13.3 0.0 40 +14 +14 1018.2 957.9
05 16.06 В 2 20 км н/о +11.9 -0.6 42 +12 +12 1018.7 958.1
06 16.06 В 4 20 км н/о +12.9 -0.4 40 +12 +12 1019.1 958.7 +11.8
07 16.06 В 3 20 км н/о +17.0 -0.3 31 +17 +17 1018.5 958.9
08 16.06 ЮВ 4 20 км н/о +19.5 +1.0 29 +20 +20 1018.0 959.0
09 16.06 В 4 20 км н/о +23.4 +4.3 29 +23 +23 комфорт 1016.9 958.7
10 16.06 В 4 20 км н/о +24.7 +4.4 27 +24 +24 комфорт 1016.5 958.6
11 16.06 В 3 20 км н/о +27.4 +5.0 24 +26 +26 жарко 1015.7 958.3
12 16.06 З 2 20 км н/о +28.5 +2.6 19 +27 +27 жарко 1015.0 957.9
13 16.06 В 2 20 км н/о +30.8 +2.9 17 +28 +28 жарко 1013.8 957.1
14 16.06 В 3 20 км н/о +29.9 +2.2 17 +28 +28 жарко 1013.2 956.4
15 16.06 СЗ 3 20 км н/о +31.0 +1.3 15 +28 +28 жарко 1012.4 955.8
16 16.06 СЗ 2 20 км н/о +31.7 -0.1 13 +29 +29 жарко 1011.8 955.4
17 16.06 СЗ 4 20 км н/о +31.5 +0.8 14 +29 +29 жарко 1011.6 955.2
18 16.06 З 2 20 км н/о +30.7 +0.1 14 +28 +28 жарко 1012.0 955.4 +32.2
19 16.06 СЗ 4 20 км н/о +28.4 +1.0 17 +26 +26 жарко 1012.6 955.6
20 16.06 С 3 20 км н/о +26.1 +0.7 19 +24 +24 комфорт 1013.6 956.1
21 16.06 З 2 20 км н/о +24.3 +1.2 22 +23 +23 комфорт 1014.7 956.8
22 16.06 СЗ 1 20 км н/о +22.8 +1.2 24 +22 +22 комфорт 1015.2 957.0
23 16.06 З 1 20 км н/о +21.6 +1.3 26 +21 +21 комфорт 1015.6 957.1
00 17.06 СВ 1 20 км н/о +20.8 +2.1 29 +23 +23 комфорт 1015.5 956.9
01 17.06 Ю 1 20 км н/о +19.3 +1.7 31 +21 +21 комфорт 1015.7 956.8
02 17.06 З 1 20 км н/о +19.4 +1.4 30 +21 +21 комфорт 1015.7 956.8
03 17.06 З 1 19 км н/о +18.1 +1.6 33 +19 +19 1016.0 956.8
04 17.06 ЮЗ 1 20 км н/о +17.3 +0.9 33 +19 +19 1016.3 956.9
05 17.06 Ю 1 20 км н/о +15.6 +1.3 38 +16 +16 1016.8 957.1
06 17.06 штиль 0 20 км н/о +16.2 +1.9 38 +16 +16 1017.2 957.6 +15.2
07 17.06 ЮВ 1 20 км н/о +19.4 +3.1 34 +21 +21 комфорт 1016.8 957.8
08 17.06 Ю 1 20 км н/о +22.6 +3.7 29 +23 +23 комфорт 1016.2 957.9
09 17.06 З 3 15 км н/о +25.1 +4.2 26 +24 +24 комфорт 1015.5 957.7
10 17.06 СЗ 3 19 км н/о +27.3 +4.3 23 +26 +26 жарко 1014.8 957.5
11 17.06 СЗ 4 20 км н/о +29.0 +3.8 20 +27 +27 жарко 1014.1 957.1
12 17.06 ЮЗ 3 20 км н/о +30.4 +3.4 18 +28 +28 жарко 1013.0 956.3
13 17.06 З 5 20 км н/о +32.3 +0.4 13 +29 +29 жарко 1011.5 955.2
14 17.06 ЮЗ 3 20 км н/о +32.9 -0.3 12 +30 +30 жарко 1010.6 954.5
15 17.06 Ю 6 20 км н/о +33.7 -0.9 11 +30 +30 жарко 1009.9 953.9
16 17.06 З 5 20 км н/о +33.5 +1.3 13 +30 +30 жарко 1009.6 953.6
17 17.06 ЮЗ 3 20 км н/о +32.9 +0.8 13 +30 +30 жарко 1008.9 952.9
18 17.06 ЮЗ 4 20 км н/о +32.5 +1.5 14 +29 +29 жарко 1009.0 952.9 +34.0
19 17.06 З 5 17 км н/о +30.6 +1.0 15 +28 +28 жарко 1009.5 953.0
20 17.06 З 2 10 км н/о +29.0 +1.5 17 +27 +27 жарко 1009.9 953.1
21 17.06 З 2 20 км н/о +27.7 +0.4 17 +26 +26 жарко 1010.8 953.7
22 17.06 З 2 20 км н/о +26.6 +1.8 20 +25 +25 комфорт 1011.3 954.0
23 17.06 З 1 20 км н/о +25.4 +1.5 21 +24 +24 комфорт 1011.9 954.3
00 18.06 З 1 20 км н/о +24.8 +1.6 22 +24 +24 комфорт 1012.0 954.3
01 18.06 З 2 20 км н/о +24.4 0.0 20 +23 +23 комфорт 1011.6 953.9
02 18.06 СЗ 3 20 км н/о +24.1 -1.7 18 +23 +23 комфорт 1011.5 953.7
03 18.06 ЮЗ 3 20 км н/о +23.2 +0.3 22 +22 +22 комфорт 1011.8 953.8
04 18.06 З 4 20 км н/о +22.0 +0.5 24 +21 +21 комфорт 1012.0 953.8
05 18.06 З 2 20 км н/о +20.8 +0.6 26 +22 +22 комфорт 1012.6 954.1
06 18.06 З 4 20 км н/о +21.6 +0.7 25 +21 +21 комфорт 1012.9 954.6 +20.7
07 18.06 ЮЗ 4 20 км н/о +23.5 -5.6 14 +22 +22 комфорт 1013.1 955.1
08 18.06 СЗ 3 20 км н/о +25.0 +0.5 20 +24 +24 комфорт 1012.8 955.1
09 18.06 ЮЗ 5 20 км н/о +26.5 -1.4 16 +24 +24 комфорт 1012.3 954.9
10 18.06 З 6 20 км н/о +27.7 -3.2 13 +25 +25 комфорт 1012.1 954.9
11 18.06 З 6 20 км н/о +28.8 +0.5 16 +26 +26 жарко 1011.5 954.6
12 18.06 ЮЗ 5 20 км н/о +30.2 +2.4 17 +28 +28 жарко 1010.8 954.2
13 18.06 З 5 20 км н/о +31.4 +0.7 14 +28 +28 жарко 1010.0 953.6
14 18.06 ЮЗ 5 20 км н/о +31.8 0.0 13 +29 +29 жарко 1009.7 953.4
15 18.06 З 7 20 км н/о +31.6 -1.3 12 +28 +28 жарко 1009.2 952.9
16 18.06 З 7 20 км н/о +31.5 -5.2 9 +28 +28 жарко 1009.0 952.7
17 18.06 З 8 20 км н/о +30.6 -5.9 9 +27 +27 жарко 1009.2 952.7
18 18.06 З 8 20 км н/о +29.2 +2.4 18 +27 +27 жарко 1009.8 953.1 +32.3
19 18.06 З 7 20 км н/о +27.5 +8.9 31 +28 +28 жарко 1010.7 953.7
20 18.06 З 5 20 км н/о +24.8 +9.5 38 +26 +26 жарко 1011.5 954.0
21 18.06 СЗ 3 20 км н/о +23.7 +9.3 40 +25 +25 комфорт 1012.5 954.7
22 18.06 СЗ 3 20 км н/о +23.2 +9.2 41 +25 +25 комфорт 1013.0 955.1
23 18.06 З 3 20 км н/о +21.9 +9.8 46 +23 +23 комфорт 1013.3 955.1
00 19.06 З 3 20 км н/о +21.1 +11.1 53 +23 +23 комфорт 1013.3 955.0
01 19.06 СЗ 4 20 км н/о +20.5 +11.9 58 +23 +23 комфорт 1013.4 955.0
02 19.06 З 4 20 км н/о +19.8 +12.3 62 +21 +21 комфорт 1013.5 955.0
03 19.06 СЗ 4 20 км н/о +19.0 +10.5 58 +20 +20 1014.0 955.2
04 19.06 З 3 20 км н/о +18.0 +9.9 59 +18 +18 1014.4 955.4
05 19.06 З 2 20 км н/о +17.1 +9.8 62 +18 +18 1015.0 955.8
06 19.06 З 4 20 км н/о +17.7 +10.1 61 +17 +17 1015.2 956.1 +17.0
07 19.06 З 5 20 км н/о +19.0 +10.5 58 +19 +19 1015.0 956.2
08 19.06 З 5 20 км н/о +20.7 +11.1 54 +23 +23 комфорт 1014.8 956.3
09 19.06 З 5 20 км н/о +22.3 +10.8 48 +24 +24 комфорт 1014.3 956.2
10 19.06 З 4 20 км н/о +23.5 +10.5 44 +25 +25 комфорт 1014.0 956.1
11 19.06 СЗ 5 20 км н/о +24.9 +10.4 40 +26 +26 жарко 1013.8 956.2
12 19.06 З 5 20 км н/о +26.0 +10.2 37 +27 +27 жарко 1013.3 955.9
13 19.06 З 5 20 км н/о +26.8 +10.5 36 +28 +28 жарко 1012.7 955.5
14 19.06 З 7 20 км н/о +27.3 +10.9 36 +28 +28 жарко 1012.3 955.2
15 19.06 З 6 20 км н/о +27.7 +10.8 35 +28 +28 жарко 1011.8 954.8
16 19.06 З 6 20 км н/о +28.1 +10.8 34 +29 +29 жарко 1011.3 954.4
17 19.06 З 7 20 км н/о +27.2 +10.0 34 +28 +28 жарко 1011.2 954.1
18 19.06 З 6 20 км н/о +26.5 +9.4 34 +27 +27 жарко 1011.4 954.2 +28.1
19 19.06 З 7 20 км н/о +24.8 +9.1 37 +25 +25 комфорт 1012.1 954.5
20 19.06 З 5 20 км н/о +23.5 +9.1 40 +24 +24 комфорт 1012.5 954.7
21 19.06 З 4 20 км н/о +22.5 +8.9 42 +24 +24 комфорт 1013.1 955.0
22 19.06 З 3 20 км н/о +21.6 +8.8 44 +23 +23 комфорт 1013.2 955.0
23 19.06 ЮЗ 2 20 км н/о +20.1 +9.3 50 +22 +22 комфорт 1013.5 955.0
00 20.06 ЮЗ 2 20 км н/о +19.2 +9.7 54 +21 +21 комфорт 1013.7 955.0
01 20.06 З 1 20 км н/о +18.6 +9.6 56 +20 +20 1013.7 954.9
02 20.06 З 2 20 км н/о +18.0 +9.6 58 +19 +19 1013.7 954.7
03 20.06 З 2 20 км н/о +17.5 +9.6 60 +18 +18 1013.5 954.5
04 20.06 З 2 20 км н/о +17.0 +9.7 62 +18 +18 1013.6 954.5
05 20.06 СЗ 2 20 км н/о +16.3 +9.7 65 +16 +16 1013.9 954.6
06 20.06 СЗ 2 20 км н/о +17.6 +10.7 64 +18 +18 1013.9 954.9 +16.3
07 20.06 З 4 20 км н/о +20.5 +11.7 57 +23 +23 комфорт 1013.3 954.9
08 20.06 З 4 20 км н/о +22.1 +11.5 51 +24 +24 комфорт 1012.8 954.7
09 20.06 З 4 20 км н/о +24.5 +11.4 44 +26 +26 жарко 1012.2 954.6
10 20.06 СЗ 4 20 км н/о +26.0 +11.0 39 +27 +27 жарко 1011.8 954.5
11 20.06 СЗ 4 20 км н/о +27.4 +9.7 33 +28 +28 жарко 1011.3 954.3
12 20.06 СЗ 5 20 км н/о +28.7 +9.9 31 +29 +29 жарко 1010.7 953.9
13 20.06 З 4 20 км н/о +28.5 +9.7 31 +29 +29 жарко 1010.1 953.3
14 20.06 СЗ 5 20 км н/о +27.7 +9.5 32 +28 +28 жарко 1009.8 952.9
15 20.06 З 6 20 км н/о +28.9 +8.6 28 +28 +28 жарко 1009.0 952.3
16 20.06 З 6 20 км н/о +29.7 +8.7 27 +29 +29 жарко 1008.3 951.8
17 20.06 З 5 20 км н/о +28.7 +9.4 30 +29 +29 жарко 1008.3 951.7
18 20.06 З 6 20 км н/о +28.1 +8.9 30 +28 +28 жарко 1008.5 951.7 +30.2
19 20.06 З 6 20 км н/о +26.8 +9.2 33 +27 +27 жарко 1008.9 951.9
20 20.06 З 5 20 км н/о +25.2 +8.6 35 +26 +26 жарко 1009.7 952.3

 

Местоположение метеостанции Толедо (Испания): широта 39.88 долгота -4.05 высота над уровнем моря 515 м.

В архиве по умолчанию представлена погода в Толедо за последнюю неделю. Архивные данные за месяц целиком и за предыдущие месяцы, начиная с января 2011 года, Вы можете получить, выбрав интересующий диапазон дат из раскрывающегося списка и нажав кнопку "Ввод!".


*Определитесь, кто Вы:
робот инопланетянин человек

Внимание! Время в таблицах - всемирное. Для получения местного времени необходимо прибавить поправку, которая равна 1 ч.

Смотрите также архив погоды в соседних городах и на ближайших метеорологических станциях:

Погода в Сан-Пабло-де-лос-Монтесе (Испания) (45 км)
Погода в Аранхуэсе (Испания) (48 км)
Погода в Мадрид аэропорту (Испания) (55 км)
Погода в Мадридехосе (Испания) (62 км)
Погода в Робледо-де-Чавеле (Испания) (63 км)
Погода в Сотильо-де-ла-Адраде (Испания) (65 км)
Погода в Мадриде Буэн-Ретиро (Испания) (67 км)
Погода в Мадриде университет (Испания) (69 км)
Погода в Талавера-де-ла-Рейне (Испания) (70 км)
Погода в Мадриде (Испания) (76 км)

Пояснения к столбцам:

Ветер - указаны скорость ветра в м/с - средняя за 10 мин, порывы в срок и между сроками (в фигурных скобках) и направление, откуда дует ветер: С - северный, СВ - северо-восточный, В - восточный, ЮВ - юго-восточный, Ю - южный, ЮЗ - юго-западный, З - западный, СЗ - северо-западный.
Видимость - горизонтальная дальность видимости в метрах или километрах. При видимости от 1 до 10 км при отсутствии осадков обычно наблюдается дымка, при ухудшении видимости до 1 км и менее - туман. В сухую погоду видимость может ухудшаться дымом, пылью или мглою.
Явления - указаны атмосферные явления, наблюдавшиеся в срок или в последний час перед сроком; фигурными скобками обозначены явления, наблюдавшиеся между сроками (за 1-3 часа до срока); квадратными скобками обозначены град или гололедные отложения с указанием их диаметра в мм.
Облачность - указаны через наклонную черту общая и нижняя облачность в баллах и высота нижней границы облаков в метрах; квадратными скобками обозначены формы облаков: Ci - перистые, Cs - перисто-слоистые, Cc - перисто-кучевые, Ac - высококучевые, As - высокослоистые, Sc - слоисто-кучевые, Ns - слоисто-дождевые, Cu - кучевые, Cb - кучево-дождевые. Подробнее классификацию облаков см. в Атласе облаков (PDF).
T - Температура воздуха - температура, измеренная на высоте 2 м над землей.
Td - Температура точки росы - температура, при понижении до которой содержащийся в воздухе водяной пар достигнет насыщения.
f - Относительная влажность воздуха - влажноcть воздуха, измеренная на высоте 2 м над землей.
Te - Эффективная температура - температура, которую ощущает одетый по сезону человек в тени. Характеристика душности погоды. При расчете учитывается влияние влажности воздуха и скорости ветра на теплоощущения человека.
Tes - Эффективная температура на солнце - температура, которую ощущает человек, с поправкой на солнечный нагрев. Характеристика знойности погоды. Зависит от высоты солнца над горизонтом, облачности и скорости ветра. Ночью, в пасмурную погоду, а также при ветре 12 м/с и более поправка равна нулю.
P - Атмосферное давление - приведенное к уровню моря атмосферное давление.
Po - Атмосферное давление - измеренное на уровне метеостанции атмосферное давление.
Tmin - Минимальная температура - минимум температуры воздуха на высоте 2 м над землей.
Tmax - Максимальная температура - максимум температуры воздуха на высоте 2 м над землей.
R - Количество осадков - Количество выпавших осадков за период времени, мм. При наведении курсора мыши на число - период времени, за который выпало указанное количество осадков.
R24 - Количество осадков - Количество выпавших осадков за 24 часа, мм.
S - Снежный покров - Высота снежного покрова, см. При наведении курсора мыши на число - состояние снежного покрова и степень покрытия местности в баллах.